VANOK Weather Reports


time (UTC)temp
F
wind
direction
speed
knots
gust
knots
rain 1hr
in
rain 24hr
in
rain mn
in
humidity
%
barometer
mb
20260508074733 48 317 4.3 7.0 0.00 0.00 0.00 49 1027.3
20260508072732 48 312 3.5 6.1 0.00 0.00 0.00 56 1027.1
20260508070733 48 325 3.5 5.2 0.00 0.00 0.00 56 1027.0
20260508064732 46 340 3.5 5.2 0.00 0.00 0.00 49 1026.7
20260508062732 47 348 2.6 4.3 0.00 0.00 0.00 50 1026.5
20260508060733 46 360 2.6 4.3 0.00 0.00 0.00 55 1026.4
20260508054733 46 42 2.6 5.2 0.00 0.00 0.00 56 1026.0
20260508052733 44 27 3.5 6.1 0.00 0.00 0.00 59 1025.8
20260508050732 44 12 5.2 7.8 0.00 0.00 0.00 62 1025.5
20260508044733 43 21 4.3 7.8 0.00 0.00 0.00 64 1025.3
20260508042732 43 22 7.0 11.3 0.00 0.00 0.00 65 1025.1
20260508040732 42 16 7.0 8.7 0.00 0.00 0.00 73 1024.9
20260508034732 41 12 6.1 8.7 0.00 0.00 0.00 76 1024.8
20260508032732 40 7 7.0 9.6 0.00 0.00 0.00 75 1024.7
20260508030733 39 2 7.8 9.6 0.00 0.00 0.00 78 1024.5
20260508024732 39 356 7.8 10.4 0.00 0.00 0.00 79 1024.3
20260508022731 38 360 7.8 9.6 0.00 0.00 0.00 79 1024.0
20260508020732 39 360 7.8 9.6 0.00 0.00 0.00 78 1023.7
20260508014732 40 355 9.6 11.3 0.00 0.00 0.00 75 1023.5
20260508012731 40 353 8.7 10.4 0.00 0.00 0.00 74 1023.3
20260508010732 40 354 7.0 8.7 0.00 0.00 0.00 75 1023.3
20260508004732 40 359 5.2 7.8 0.00 0.00 0.00 76 1023.1
20260508002732 41 348 7.0 8.7 0.00 0.00 0.00 71 1022.8
20260508000733 41 340 9.6 11.3 0.00 0.00 0.00 69 1022.5
20260507234732 41 338 8.7 10.4 0.00 0.00 0.00 71 1022.3
20260507232731 42 335 8.7 11.3 0.00 0.00 0.00 68 1022.1
20260507230732 42 333 9.6 11.3 0.00 0.00 0.00 66 1021.7
20260507224731 42 337 7.8 10.4 0.00 0.00 0.00 64 1021.6
20260507222732 43 331 8.7 10.4 0.00 0.00 0.00 63 1021.5
20260507220731 43 334 11.3 13.9 0.00 0.00 0.00 62 1021.2
20260507214731 44 334 13.0 18.2 0.00 0.00 0.00 60 1020.9
20260507212730 44 334 13.0 17.4 0.00 0.00 0.00 57 1020.6
20260507210730 44 334 13.0 17.4 0.00 0.00 0.00 56 1020.4
20260507204731 44 337 12.2 18.2 0.00 0.00 0.00 56 1020.1
20260507202731 45 339 11.3 14.8 0.00 0.00 0.00 51 1019.9
20260507200732 45 333 11.3 15.6 0.00 0.00 0.00 53 1019.7
20260507194730 45 326 10.4 13.0 0.00 0.00 0.00 56 1019.5
20260507192730 46 326 11.3 13.9 0.00 0.00 0.00 47 1019.1
20260507190730 46 323 11.3 15.6 0.00 0.00 0.00 46 1019.0
20260507184730 46 319 11.3 14.8 0.00 0.00 0.00 49 1018.7
20260507182729 46 316 9.6 12.2 0.00 0.00 0.00 48 1018.5
20260507180729 47 313 9.6 12.2 0.00 0.00 0.00 44 1018.4
20260507174730 48 312 9.6 13.0 0.00 0.00 0.00 40 1018.3
20260507172729 48 320 8.7 13.0 0.00 0.00 0.00 40 1018.1
20260507170729 49 319 10.4 15.6 0.00 0.00 0.00 39 1017.9
20260507164730 49 318 11.3 16.5 0.00 0.00 0.00 41 1017.8
20260507162730 49 310 10.4 16.5 0.00 0.00 0.00 46 1017.7
20260507160730 49 296 12.2 18.2 0.00 0.00 0.00 49 1017.6
20260507154729 50 287 13.0 18.2 0.00 0.00 0.00 42 1017.4
20260507152729 51 284 10.4 17.4 0.00 0.00 0.00 40 1017.2
20260507150731 51 283 9.6 14.8 0.00 0.00 0.00 38 1017.2
20260507144730 51 282 11.3 16.5 0.00 0.00 0.00 37 1017.2
20260507142731 51 287 12.2 16.5 0.00 0.00 0.00 33 1017.1
20260507140730 52 290 10.4 16.5 0.00 0.00 0.00 35 1017.1
20260507134730 50 286 13.0 15.6 0.00 0.00 0.00 40 1017.1
20260507132729 52 275 10.4 13.0 0.00 0.00 0.00 25 1016.9
20260507130730 53 268 7.8 10.4 0.00 0.00 0.00 23 1016.9
20260507124729 53 285 6.1 9.6 0.00 0.00 0.00 25 1016.9
20260507122728 52 289 7.0 9.6 0.00 0.00 0.00 27 1016.8
20260507120730 50 288 7.0 9.6 0.00 0.00 0.00 29 1016.8
20260507114729 51 288 7.0 9.6 0.00 0.00 0.00 30 1016.8
20260507112728 51 290 7.0 9.6 0.00 0.00 0.00 31 1016.8
20260507110728 50 297 7.0 9.6 0.00 0.00 0.00 35 1016.7
20260507104728 49 298 7.0 10.4 0.00 0.00 0.00 38 1016.6
20260507102728 51 269 5.2 9.6 0.00 0.00 0.00 38 1016.6
20260507100728 49 284 5.2 7.8 0.00 0.00 0.00 41 1016.3
20260507092728 51 146 1.7 3.5 0.00 0.00 0.00 32 1016.2
20260507090729 48 127 2.6 5.2 0.00 0.00 0.00 37 1016.2
20260507084728 49 96 2.6 4.3 0.00 0.00 0.00 35 1016.2
20260507082728 48 89 5.2 7.0 0.00 0.00 0.00 36 1016.2
20260507080728 48 92 4.3 6.1 0.00 0.00 0.00 35 1016.2